Address 0x5e12ae8e436cd25f0041d931f8e4c7a3bb42cc1f

 
Txn Hash
Block
From
To
Value [Txn Fee]
0x9caff81cfdd6b25e399142f639e32e9df004e045e1c5c20d638a2cff95bb19b194264562021-07-24 3:41:427 hrs 19 mins agoWardenSwap: DeployerOUT 0x359b9fc0765481569c33ccef23bd14d0878125ae0 BNB0.000375005
0xf96f7971881e3ddb0b3737df26cb1de1c73b663cce998dcd0804bbc4184276f094261752021-07-24 3:27:397 hrs 33 mins agoWardenSwap: DeployerOUT 0xcf3b7841157f0d83c898148b4a78e0a7a2700e600 BNB0.00037523
0x61205f96068edf094182edad90446253a209ff6a57a614c60f04e91a210789be93448542021-07-21 7:33:013 days 3 hrs agoWardenSwap: DeployerOUT 0xcf3b7841157f0d83c898148b4a78e0a7a2700e600 BNB0.00037523
0x164d9a693341578b8bf420142f25e3d3a18ab20e2af8f3e2aa98ba40f079b31a93448492021-07-21 7:32:463 days 3 hrs agoWardenSwap: DeployerOUT 0xcf3b7841157f0d83c898148b4a78e0a7a2700e600 BNB0.00037523
0x4946f2b0a8b6d88b462f07e230333f1eec3774b977d0a540ad4eeda9392a1ba093448442021-07-21 7:32:313 days 3 hrs agoWardenSwap: DeployerOUT 0xcf3b7841157f0d83c898148b4a78e0a7a2700e600 BNB0.00037535
0x905daedbdf6db28e920bed890ff51d3f9f56caca615589bc10594b86ff1fdce393448372021-07-21 7:32:103 days 3 hrs agoWardenSwap: DeployerOUT 0xcf3b7841157f0d83c898148b4a78e0a7a2700e600 BNB0.00037523
0xea8edd780210792fc6518bca0983bf8c7a397d463c98cb276fcc494b38e8ce2693448322021-07-21 7:31:553 days 3 hrs agoWardenSwap: DeployerOUT 0xcf3b7841157f0d83c898148b4a78e0a7a2700e600 BNB0.00037529
0x987fd0f0fbc528de9e7a63b363c7e41020110d63c220b9a75f2aaa975156c3cb93448262021-07-21 7:31:373 days 3 hrs agoWardenSwap: DeployerOUT 0xcf3b7841157f0d83c898148b4a78e0a7a2700e600 BNB0.00037523
0x1ee50a4a5c1b7e6aa99364539f76f8f51e9104714bccc58212b5d98a5369b76893448202021-07-21 7:31:193 days 3 hrs agoWardenSwap: DeployerOUT 0xcf3b7841157f0d83c898148b4a78e0a7a2700e600 BNB0.00037517
0x19bd4d6066fef3ee69e480613162350160c9a56cc3de74e1f49b9f11c60821e893448152021-07-21 7:31:043 days 3 hrs agoWardenSwap: DeployerOUT 0xcf3b7841157f0d83c898148b4a78e0a7a2700e600 BNB0.00037565
0xef08e3b0df2dff044a5bfa08947bb950b9e142cd427916b245064b5a79eb5e4193448092021-07-21 7:30:463 days 3 hrs agoWardenSwap: DeployerOUT 0xcf3b7841157f0d83c898148b4a78e0a7a2700e600 BNB0.00037559
0x45e1bf90c51e032a85fd564e75b50ad9daf1897a791967977fdda42728e6c2cd93448042021-07-21 7:30:313 days 3 hrs agoWardenSwap: DeployerOUT 0xcf3b7841157f0d83c898148b4a78e0a7a2700e600 BNB0.00037559
0xa276e917ded1acc3e08b5e79c5156817a931817fe9970ca812c5066a2246b6c493447982021-07-21 7:30:133 days 3 hrs agoWardenSwap: DeployerOUT 0xcf3b7841157f0d83c898148b4a78e0a7a2700e600 BNB0.00037559
0x7459b9aa163aa0f8d3979589b184745244db6a967789334bfa13b1a3755e9e7693447932021-07-21 7:29:583 days 3 hrs agoWardenSwap: DeployerOUT 0xcf3b7841157f0d83c898148b4a78e0a7a2700e600 BNB0.00037535
0x1dccd9145cbc896b05eaf29d942486dab72157c03dfd48f9462205567a73823493447882021-07-21 7:29:433 days 3 hrs agoWardenSwap: DeployerOUT 0xcf3b7841157f0d83c898148b4a78e0a7a2700e600 BNB0.00037511
0xca0fd49aee38e347c9f2194a4ada892f188338f61e83cb47d60b51ccc29d0efe93447822021-07-21 7:29:253 days 3 hrs agoWardenSwap: DeployerOUT 0xcf3b7841157f0d83c898148b4a78e0a7a2700e600 BNB0.00037505
0xccf7e459d0f08139be41a67f110fd246b0e51d57b5c212ca4067a24138be297c93447772021-07-21 7:29:103 days 3 hrs agoWardenSwap: DeployerOUT 0xcf3b7841157f0d83c898148b4a78e0a7a2700e600 BNB0.00037523
0x10fccaba4cdf554e2968bb75c4367009effd8e4c8af1ef43ce5caecce52fe99593447712021-07-21 7:28:523 days 3 hrs agoWardenSwap: DeployerOUT 0xcf3b7841157f0d83c898148b4a78e0a7a2700e600 BNB0.00037505
0x1d684d9d192857b823cd6e836ff7f3163c110e0a159103d317d331820e98e5c293447662021-07-21 7:28:373 days 3 hrs agoWardenSwap: DeployerOUT 0xcf3b7841157f0d83c898148b4a78e0a7a2700e600 BNB0.00037529
0xb528485a9be620385480b0c8839fafd64ebe05cbba3bc10150d2ef9bb645df5b93447602021-07-21 7:28:193 days 3 hrs agoWardenSwap: DeployerOUT 0xcf3b7841157f0d83c898148b4a78e0a7a2700e600 BNB0.00037517
0x51721e128bf4ea4365a28bb59b74e0cd2a87f4456b07e3f4eb8cdc27d09c421493447552021-07-21 7:28:043 days 3 hrs agoWardenSwap: DeployerOUT 0xcf3b7841157f0d83c898148b4a78e0a7a2700e600 BNB0.00037511
0xdaf3c781586f06653df26ec9a8f96803055f79d43233b00418dc5491d33d414593447502021-07-21 7:27:493 days 3 hrs agoWardenSwap: DeployerOUT 0xcf3b7841157f0d83c898148b4a78e0a7a2700e600 BNB0.00037505
0x9d9acb40564927ff63ffe423e90beaa9a8e45819df8f4ffa63de54cee9d337aa93447432021-07-21 7:27:283 days 3 hrs agoWardenSwap: DeployerOUT 0xcf3b7841157f0d83c898148b4a78e0a7a2700e600 BNB0.00037529
0xe07d641f592a2cead7f7dcabfe05c22b25e092190979c4c0671dd2942ae0517793447382021-07-21 7:27:133 days 3 hrs agoWardenSwap: DeployerOUT 0xcf3b7841157f0d83c898148b4a78e0a7a2700e600 BNB0.00037529
0xdc0cc971f4565019fb30f18880fc5b306e0c54612bce0f7f2cc89d1c9342ebf293447312021-07-21 7:26:523 days 3 hrs agoWardenSwap: DeployerOUT 0xcf3b7841157f0d83c898148b4a78e0a7a2700e600 BNB0.00037541
[ Download CSV Export 

OVERVIEW

The deployer address for WardenSwap's contract.

Latest 3 internal transactions
Parent Txn Hash Block From To Value
0x5dcdc334ad701c9f744e4de85ab6348a8cf09fb7bcbecc247c428ef4bd55a10f94046692021-07-23 9:25:051 day 1 hr ago 0xcf3b7841157f0d83c898148b4a78e0a7a2700e60WardenSwap: Deployer0.000001508590512166 BNB
0xa188cf73cd44af48896024ff26325bdd76812220f1182581444dd6c7b53637ba83386612021-06-16 5:42:1138 days 5 hrs ago 0x359b9fc0765481569c33ccef23bd14d0878125aeWardenSwap: Deployer0.000013586080301235 BNB
0xe3db0451be67a1393703b5f018a8d89bbd0a9df40d363514e70dada7c2fe2e1b83386382021-06-16 5:41:0238 days 5 hrs ago 0x359b9fc0765481569c33ccef23bd14d0878125aeWardenSwap: Deployer0.000013413817004734 BNB
[ Download CSV Export 
Loading

Contract Name:
0 BNB

Compiler Version
0

Optimization Enabled:
0 BNB

Other Settings:
-NA-
Block Transaction Gas Used Reward
Age Block Fee Address BC Fee Address Voting Power Jailed Incoming
Block Uncle Number Difficulty Gas Used Reward
Loading
Loading
Make sure to use the "Vote Down" button for any spammy posts, and the "Vote Up" for interesting conversations.